Location: *
(52.2090°N, 4.1550°W)
Time: 04:16:59
(UTC+00:00)

NOSS 2-3 (D) - Visible Passes

Search period start: 20 October 2019 00:00
Search period end: 30 October 2019 00:00
Orbit: 597 x 1614 km, 63.4° (Epoch: 07 October)

Date Brightness Start Highest point End Pass type
(mag) Time Alt. Az. Time Alt. Az. Time Alt. Az.
20 Oct 6.9 01:37:17 13° NE 01:37:17 13° NE 01:37:51 10° NE visible
20 Oct 5.2 03:24:42 36° N 03:24:42 36° N 03:29:11 10° NE visible
20 Oct 5.7 05:12:08 14° NW 05:15:54 28° N 05:21:37 10° ENE visible
21 Oct 5.9 02:41:15 27° NNE 02:41:15 27° NNE 02:44:11 10° NE visible
21 Oct 5.5 04:28:41 23° NW 04:30:36 29° N 04:36:08 10° NE visible
22 Oct 6.6 01:57:48 17° NE 01:57:48 17° NE 01:59:13 10° NE visible
22 Oct 5.4 03:45:13 31° NNW 03:45:20 31° NNW 03:50:48 10° NE visible
22 Oct 5.8 05:32:42 10° NW 05:37:46 32° NNE 05:44:03 10° ENE visible
23 Oct 5.7 03:01:46 29° NNE 03:01:46 29° NNE 03:05:38 10° NE visible
23 Oct 5.8 04:49:12 17° NW 04:52:29 29° N 04:58:23 10° ENE visible
24 Oct 6.4 02:18:19 21° NNE 02:18:19 21° NNE 02:20:34 10° NE visible
24 Oct 5.6 04:05:44 25° NNW 04:07:11 28° N 04:12:48 10° ENE visible
24 Oct 5.6 05:53:56 10° NW 05:59:31 41° NNE 06:06:36 10° E visible
25 Oct 6.9 01:34:51 13° NE 01:34:51 13° NE 01:35:35 10° NE visible
25 Oct 5.7 03:22:17 29° N 03:22:17 29° N 03:27:22 10° NE visible
25 Oct 5.8 05:09:42 13° NW 05:14:19 34° NNE 05:20:53 10° E visible
26 Oct 6.1 02:38:50 25° NNE 02:38:50 25° NNE 02:42:06 10° NE visible
26 Oct 5.8 04:26:15 21° NNW 04:29:03 30° NNE 04:35:09 10° ENE visible
26 Oct 5.3 06:14:58 10° NW 06:21:04 58° NE 06:28:54 10° ESE visible
27 Oct 6.7 01:55:22 17° NE 01:55:22 17° NE 01:56:58 10° NE visible
27 Oct 5.7 03:42:48 27° NNW 03:43:45 28° N 03:49:31 10° ENE visible
27 Oct 5.5 05:30:14 10° NW 05:35:59 46° NNE 05:43:22 10° ESE visible
28 Oct 7.2 01:11:56 10° NE 01:11:56 10° NE 01:11:57 10° NE visible
28 Oct 6.0 02:59:22 27° NNE 02:59:22 27° NNE 03:04:00 10° NE visible
28 Oct 5.7 04:46:48 18° NW 04:50:50 38° NNE 04:57:42 10° E visible
29 Oct 6.5 02:15:57 21° NNE 02:15:57 21° NNE 02:18:38 10° NE visible
29 Oct 5.7 04:03:23 26° NNW 04:05:37 33° NNE 04:11:59 10° ENE visible
29 Oct 5.1 05:51:14 10° NW 05:57:28 67° NE 06:05:32 10° ESE visible
